When you browse on this site, cookies collect data to enhance your experience and personalize the content and advertising you see.
Visit our Privacy Policy to learn more. By continuing to use the site, you agree to this use of cookies and data.
  • In Hungary
  • List of Countries
  • For 7 days
  • Water Temperature
  • Weather Map
  • News
  • Weather Widgets
  • user-avatar
    Login

    Hourly Weather Best

    Today, 22 August, Thursday

    Time Temperature Precipitation Wind Pressure Humidity
    00:00 +15°C° 0 mm 2 mps 768 mmHg 60%
    01:00 +14°C° 0 mm 2 mps 768 mmHg 62%
    02:00 +14°C° 0 mm 1 mps 767 mmHg 63%
    03:00 +14°C° 0 mm 1 mps 767 mmHg 64%
    04:00 +14°C° 0 mm 1 mps 767 mmHg 66%
    05:00 +14°C° 0 mm 1 mps 767 mmHg 68%
    06:00 +15°C° 0 mm 1 mps 767 mmHg 70%
    07:00 +17°C° 0 mm 2 mps 767 mmHg 66%
    08:00 +19°C° 0 mm 2 mps 768 mmHg 61%
    09:00 +21°C° 0 mm 2 mps 768 mmHg 56%
    10:00 +23°C° 0 mm 2 mps 767 mmHg 52%
    11:00 +24°C° 0 mm 2 mps 767 mmHg 48%
    12:00 +25°C° 0 mm 2 mps 767 mmHg 45%
    13:00 +25°C° 0 mm 2 mps 767 mmHg 44%
    14:00 +25°C° 0 mm 2 mps 767 mmHg 44%
    15:00 +26°C° 0 mm 2 mps 767 mmHg 43%
    16:00 +24°C° 0 mm 2 mps 767 mmHg 50%
    17:00 +23°C° 0 mm 2 mps 767 mmHg 57%
    18:00 +20°C° 0 mm 2 mps 767 mmHg 64%
    19:00 +19°C° 0 mm 2 mps 767 mmHg 64%
    20:00 +19°C° 0 mm 1 mps 767 mmHg 65%
    21:00 +16°C° 0 mm 1 mps 768 mmHg 65%
    22:00 +16°C° 0 mm 1 mps 768 mmHg 66%
    23:00 +15°C° 0 mm 1 mps 767 mmHg 67%

    Tomorrow, 23 August, Friday

    Time Temperature Precipitation Wind Pressure Humidity
    00:00 +14°C° 0 mm 0 mps 767 mmHg 68%
    01:00 +13°C° 0 mm 0 mps 767 mmHg 69%
    02:00 +13°C° 0 mm 0 mps 767 mmHg 71%
    03:00 +13°C° 0 mm 0 mps 767 mmHg 73%
    04:00 +14°C° 0 mm 0 mps 767 mmHg 73%
    05:00 +15°C° 0 mm 0 mps 767 mmHg 73%
    06:00 +15°C° 0 mm 0 mps 767 mmHg 73%
    07:00 +17°C° 0 mm 0 mps 767 mmHg 68%
    08:00 +21°C° 0 mm 1 mps 767 mmHg 62%
    09:00 +23°C° 0 mm 1 mps 767 mmHg 57%
    10:00 +24°C° 0 mm 1 mps 767 mmHg 54%
    11:00 +25°C° 0 mm 1 mps 766 mmHg 51%
    12:00 +26°C° 0 mm 2 mps 766 mmHg 48%
    13:00 +27°C° 0 mm 2 mps 766 mmHg 48%
    14:00 +27°C° 0 mm 2 mps 766 mmHg 47%
    15:00 +27°C° 0 mm 2 mps 765 mmHg 47%
    16:00 +26°C° 0 mm 2 mps 765 mmHg 54%
    17:00 +24°C° 0 mm 2 mps 765 mmHg 60%
    18:00 +22°C° 0 mm 3 mps 765 mmHg 67%
    19:00 +21°C° 0 mm 3 mps 765 mmHg 68%
    20:00 +20°C° 0 mm 3 mps 765 mmHg 69%
    21:00 +18°C° 0 mm 3 mps 765 mmHg 71%
    22:00 +18°C° 0 mm 3 mps 765 mmHg 72%
    23:00 +18°C° 0 mm 3 mps 765 mmHg 73%

    Day after tomorrow, 24 August, Saturday

    Time Temperature Precipitation Wind Pressure Humidity
    00:00 +17°C° 0 mm 3 mps 765 mmHg 74%
    01:00 +17°C° 0 mm 2 mps 764 mmHg 76%
    02:00 +16°C° 0 mm 2 mps 764 mmHg 78%
    03:00 +16°C° 0 mm 2 mps 764 mmHg 80%
    04:00 +16°C° 0 mm 2 mps 764 mmHg 78%
    05:00 +17°C° 0 mm 2 mps 764 mmHg 77%
    06:00 +17°C° 0 mm 2 mps 764 mmHg 76%
    07:00 +19°C° 0 mm 2 mps 764 mmHg 68%
    08:00 +23°C° 0 mm 2 mps 764 mmHg 61%
    09:00 +25°C° 0 mm 2 mps 764 mmHg 54%
    10:00 +26°C° 0 mm 3 mps 763 mmHg 50%
    11:00 +27°C° 0 mm 3 mps 763 mmHg 46%
    12:00 +29°C° 0 mm 3 mps 763 mmHg 42%
    13:00 +29°C° 0 mm 3 mps 762 mmHg 41%
    14:00 +29°C° 0 mm 3 mps 762 mmHg 41%
    15:00 +29°C° 0 mm 2 mps 761 mmHg 40%
    16:00 +28°C° 0 mm 2 mps 761 mmHg 46%
    17:00 +26°C° 0 mm 2 mps 761 mmHg 51%
    18:00 +25°C° 0 mm 2 mps 761 mmHg 57%
    19:00 +24°C° 0 mm 2 mps 761 mmHg 60%
    20:00 +23°C° 0 mm 2 mps 761 mmHg 62%
    21:00 +20°C° 0 mm 2 mps 762 mmHg 65%
    22:00 +20°C° 0 mm 2 mps 761 mmHg 67%
    23:00 +19°C° 0 mm 2 mps 761 mmHg 69%

    25 August, Sunday

    Time Temperature Precipitation Wind Pressure Humidity
    00:00 +19°C° 0 mm 2 mps 761 mmHg 71%
    01:00 +20°C° 0 mm 1 mps 761 mmHg 69%
    02:00 +19°C° 0 mm 1 mps 760 mmHg 68%
    03:00 +19°C° 0 mm 1 mps 760 mmHg 66%
    04:00 +20°C° 0 mm 1 mps 760 mmHg 66%
    05:00 +20°C° 0 mm 1 mps 760 mmHg 66%
    06:00 +20°C° 0 mm 1 mps 760 mmHg 65%
    07:00 +22°C° 0 mm 1 mps 761 mmHg 61%
    08:00 +24°C° 0 mm 1 mps 761 mmHg 57%
    09:00 +27°C° 0 mm 1 mps 761 mmHg 53%
    10:00 +28°C° 0 mm 1 mps 761 mmHg 51%
    11:00 +29°C° 0 mm 1 mps 761 mmHg 49%
    12:00 +30°C° 0 mm 1 mps 760 mmHg 47%
    13:00 +31°C° 0 mm 1 mps 760 mmHg 46%
    14:00 +31°C° 0 mm 1 mps 760 mmHg 44%
    15:00 +31°C° 0 mm 1 mps 760 mmHg 43%
    16:00 +30°C° 0 mm 1 mps 760 mmHg 49%
    17:00 +28°C° 0 mm 2 mps 760 mmHg 56%
    18:00 +27°C° 0 mm 2 mps 761 mmHg 62%
    19:00 +26°C° 0 mm 2 mps 761 mmHg 63%
    20:00 +24°C° 0 mm 2 mps 761 mmHg 64%
    21:00 +23°C° 0 mm 2 mps 762 mmHg 64%
    22:00 +23°C° 0 mm 1 mps 762 mmHg 66%
    23:00 +22°C° 0 mm 1 mps 762 mmHg 67%

    26 August, Monday

    Time Temperature Precipitation Wind Pressure Humidity
    00:00 +22°C° 0 mm 1 mps 762 mmHg 69%
    01:00 +21°C° 0 mm 1 mps 761 mmHg 70%
    02:00 +21°C° 0 mm 1 mps 761 mmHg 71%
    03:00 +21°C° 0 mm 1 mps 761 mmHg 72%
    04:00 +21°C° 0 mm 1 mps 762 mmHg 72%
    05:00 +22°C° 0 mm 1 mps 762 mmHg 73%
    06:00 +22°C° 0 mm 1 mps 762 mmHg 74%
    07:00 +24°C° 0 mm 1 mps 762 mmHg 68%
    08:00 +26°C° 0 mm 1 mps 763 mmHg 61%
    09:00 +28°C° 0 mm 1 mps 763 mmHg 55%
    10:00 +29°C° 0 mm 1 mps 763 mmHg 50%
    11:00 +31°C° 0 mm 1 mps 763 mmHg 45%
    12:00 +32°C° 0 mm 1 mps 763 mmHg 41%
    13:00 +32°C° 0 mm 1 mps 763 mmHg 39%
    14:00 +33°C° 0 mm 1 mps 762 mmHg 38%
    15:00 +33°C° 0 mm 1 mps 762 mmHg 37%
    16:00 +31°C° 0 mm 1 mps 762 mmHg 43%
    17:00 +30°C° 0 mm 1 mps 762 mmHg 49%
    18:00 +28°C° 0 mm 1 mps 763 mmHg 55%
    19:00 +26°C° 0 mm 1 mps 763 mmHg 58%
    20:00 +25°C° 0 mm 2 mps 763 mmHg 60%
    21:00 +23°C° 0 mm 2 mps 764 mmHg 63%
    22:00 +23°C° 0 mm 2 mps 764 mmHg 65%
    23:00 +21°C° 0 mm 2 mps 764 mmHg 68%

    27 August, Tuesday

    Time Temperature Precipitation Wind Pressure Humidity
    00:00 +20°C° 0 mm 2 mps 764 mmHg 70%
    01:00 +20°C° 0 mm 2 mps 764 mmHg 72%
    02:00 +19°C° 0 mm 2 mps 763 mmHg 74%
    03:00 +19°C° 0 mm 2 mps 763 mmHg 76%
    04:00 +20°C° 0 mm 1 mps 763 mmHg 76%
    05:00 +20°C° 0 mm 1 mps 763 mmHg 77%
    06:00 +20°C° 0 mm 1 mps 763 mmHg 77%
    07:00 +22°C° 0 mm 1 mps 763 mmHg 71%
    08:00 +24°C° 0 mm 1 mps 763 mmHg 65%
    09:00 +27°C° 0 mm 1 mps 763 mmHg 59%
    10:00 +28°C° 0 mm 1 mps 763 mmHg 55%
    11:00 +30°C° 0 mm 1 mps 763 mmHg 51%
    12:00 +31°C° 0 mm 1 mps 762 mmHg 46%
    13:00 +32°C° 0 mm 1 mps 762 mmHg 45%
    14:00 +32°C° 0 mm 1 mps 761 mmHg 43%
    15:00 +33°C° 0 mm 1 mps 761 mmHg 41%
    16:00 +31°C° 0 mm 1 mps 761 mmHg 47%
    17:00 +30°C° 0 mm 2 mps 760 mmHg 52%
    18:00 +28°C° 0 mm 2 mps 760 mmHg 58%
    19:00 +27°C° 0 mm 2 mps 760 mmHg 60%
    20:00 +26°C° 0 mm 2 mps 760 mmHg 62%
    21:00 +25°C° 0 mm 3 mps 760 mmHg 64%
    22:00 +24°C° 0 mm 2 mps 760 mmHg 65%
    23:00 +24°C° 0 mm 2 mps 760 mmHg 66%
    Show more